Theta_e
355 355 355 354 355 355 356 356 357 358 359 358 359 359 360 360 359 358 358 357 356 355 356 356 357 357 357 357 357 358 359 360 361 361 362 364 365 366 369 370 371 372 372 372 372 372 372 374 374 374 373 371 371 370 369 368 366 366 366 367 366 366 365 364 363 364 364 363 363 363 363 363 362 362 362 362 362 362 362 362 361 361 361 361 361
356 356 354 354 355 355 356 356 356 358 358 358 360 360 359 359 358 357 356 355 355 354 356 354 353 353 352 352 352 353 356 357 358 359 361 363 364 364 369 370 371 372 372 373 372 373 373 375 375 375 374 373 372 372 371 370 369 367 368 368 367 367 367 366 365 364 364 364 364 364 364 363 363 362 362 362 363 362 362 362 362 361 362 362 361
357 356 355 355 355 356 355 357 355 356 358 358 359 359 359 358 357 357 356 355 353 353 352 350 350 349 350 349 349 350 351 354 355 357 360 361 362 363 363 368 371 371 372 373 373 373 373 374 375 376 375 375 374 374 373 372 371 370 369 369 369 369 368 367 366 366 365 365 365 365 364 363 363 362 362 362 363 363 362 362 362 362 362 361 361
358 357 355 354 354 354 355 355 355 355 356 356 357 358 358 357 357 356 356 354 353 351 351 349 348 348 349 347 348 348 348 350 353 354 357 359 360 361 362 361 367 369 371 373 373 373 374 374 376 377 377 376 375 375 374 373 372 371 371 370 370 370 369 368 368 366 366 366 366 365 365 365 364 363 362 363 363 363 363 363 362 362 362 361 362
359 358 359 356 354 353 354 356 356 356 355 354 354 356 355 355 354 355 354 353 351 350 350 349 348 348 348 346 345 343 343 349 351 353 354 356 359 360 361 362 362 365 369 371 373 374 374 374 375 376 377 377 376 376 375 374 374 373 372 371 370 370 370 369 369 367 367 367 367 366 366 365 364 364 364 363 363 363 363 363 362 362 362 362 362
359 358 357 355 354 353 352 353 354 354 354 353 352 353 352 352 351 353 353 354 351 350 349 348 347 346 344 342 343 345 343 343 349 351 354 355 357 360 360 361 361 362 361 366 370 372 373 373 373 374 376 377 377 376 376 375 374 373 373 372 371 370 370 370 369 368 368 368 367 367 366 366 365 365 364 364 363 362 362 362 362 362 362 362 362
358 357 356 355 352 351 351 351 353 353 351 351 351 352 352 351 352 350 350 349 348 349 348 347 344 343 344 347 345 345 346 346 348 351 353 356 357 357 360 360 360 359 358 359 361 365 368 371 372 372 372 374 376 377 376 376 375 374 373 373 372 372 371 371 370 369 369 369 368 368 367 367 366 366 365 365 364 363 363 362 362 362 362 362 362
358 356 354 354 352 350 350 350 350 349 349 350 353 351 351 350 351 350 348 347 348 347 348 344 343 343 346 349 348 348 346 348 348 348 351 355 356 356 357 358 357 357 358 355 354 354 360 364 368 370 371 373 376 377 377 376 376 375 374 373 372 372 371 371 371 371 370 369 369 369 368 368 367 367 366 366 365 364 363 363 363 363 363 362 362
356 355 354 353 352 351 350 349 349 347 347 349 352 353 352 350 351 353 350 348 347 345 345 347 345 345 346 346 347 349 347 349 348 349 352 352 352 352 352 353 354 358 357 355 356 355 356 360 362 365 367 370 372 375 376 377 376 376 375 374 373 372 372 371 371 371 371 370 370 370 369 369 368 368 367 366 366 365 365 364 364 364 364 364 363
354 354 353 353 353 352 352 350 347 346 346 346 348 350 352 351 349 350 350 348 345 344 343 344 344 345 347 346 348 347 347 348 349 356 353 350 351 350 351 351 350 349 351 352 351 354 354 356 360 364 368 369 369 371 375 376 377 376 376 374 374 373 372 372 371 371 371 371 371 370 370 369 369 368 368 367 367 366 366 365 365 364 365 364 364
353 354 352 352 353 353 352 352 349 346 344 344 344 346 347 346 346 346 349 347 345 345 344 345 345 346 345 346 347 348 350 348 350 349 347 347 348 352 350 351 348 347 348 349 348 350 353 354 355 357 357 364 371 371 373 375 376 377 376 375 374 374 374 373 372 372 371 370 371 371 370 370 369 369 368 368 367 366 366 366 366 366 366 365 365
353 353 352 353 352 352 351 352 350 349 347 345 344 344 344 344 344 343 344 345 350 348 347 348 347 346 348 348 347 346 348 350 349 348 350 348 348 350 348 348 349 349 347 348 349 347 350 352 357 353 353 353 360 369 373 374 375 376 376 376 375 375 374 373 373 372 372 371 371 370 369 370 370 369 369 368 368 367 367 367 366 366 366 366 365
353 353 352 354 354 352 351 351 350 351 349 347 347 346 346 345 346 350 348 346 345 347 347 347 345 344 346 345 346 348 349 351 350 349 348 348 348 348 348 348 348 348 350 349 349 348 348 352 352 354 355 357 358 362 369 375 375 376 376 376 375 375 375 374 373 373 373 372 371 370 371 371 370 369 369 369 368 368 367 367 367 366 366 366 366
352 353 355 352 351 351 351 350 350 350 350 351 350 356 354 350 348 347 349 347 345 346 346 346 342 342 340 341 344 347 349 354 352 352 351 349 348 348 349 347 347 347 349 351 350 348 348 349 354 352 356 359 361 363 367 372 376 376 376 376 376 376 375 374 374 374 373 373 372 372 372 372 371 369 369 369 369 368 368 368 367 367 366 366 366
347 352 352 352 351 350 349 350 350 351 351 350 350 348 348 347 348 346 343 346 347 349 349 347 342 347 345 341 337 338 345 347 350 349 349 349 348 346 347 346 346 347 349 350 351 351 348 349 349 353 357 360 362 365 367 369 374 376 376 376 375 375 376 375 374 374 374 373 373 373 373 372 372 371 370 370 369 368 368 367 366 367 367 366 366
344 346 350 351 352 351 350 349 349 350 349 347 347 346 347 345 344 347 347 341 343 345 353 348 348 347 340 340 339 338 335 340 341 345 347 347 346 346 347 346 347 347 348 348 347 350 352 351 350 354 358 361 364 365 365 367 369 374 376 376 375 373 375 376 375 374 374 374 373 373 373 373 372 371 371 370 369 368 368 368 367 366 367 366 366
342 343 347 348 350 352 351 350 349 349 349 347 346 346 345 344 343 343 345 343 341 344 350 350 347 349 347 342 337 336 335 338 339 342 345 345 345 346 347 349 347 343 342 342 346 349 348 349 352 353 356 359 361 364 365 365 367 372 374 376 375 374 371 374 375 375 375 374 373 373 373 372 372 372 371 371 370 369 368 368 367 367 366 366 365
341 341 342 346 347 350 351 350 349 350 349 348 348 347 347 346 346 345 344 347 345 343 342 349 349 352 348 347 345 338 337 340 338 336 346 346 345 344 345 345 342 340 340 341 345 346 352 349 351 352 353 353 355 357 360 362 366 366 371 373 375 375 372 372 374 375 375 374 374 373 373 372 372 372 372 371 370 369 369 368 368 367 366 365 365
342 342 342 345 348 349 351 351 350 350 352 350 348 348 348 349 350 347 345 347 347 343 342 343 347 348 348 348 348 348 345 343 338 339 333 339 342 344 345 345 343 341 338 338 345 347 349 350 351 349 350 352 353 354 357 359 361 363 365 368 372 374 373 372 373 374 375 375 374 373 373 372 372 372 371 371 370 370 369 369 368 368 367 366 366
344 345 345 345 349 349 352 352 351 351 352 352 350 351 351 351 352 350 348 347 346 343 342 343 342 343 350 348 349 348 347 346 342 336 333 330 333 340 344 345 343 339 338 337 340 342 343 343 344 343 346 347 351 352 354 355 360 362 363 366 369 370 372 372 374 374 375 376 375 374 373 372 371 371 371 370 370 370 370 369 369 368 368 367 367
348 347 347 347 352 352 352 352 351 351 355 353 353 352 352 351 351 349 348 347 346 346 345 343 343 342 344 346 347 347 347 346 340 341 335 330 331 333 335 342 340 340 340 339 338 339 342 344 343 348 351 354 354 352 351 354 355 359 360 364 367 367 369 372 374 375 375 375 375 374 373 372 371 370 370 369 369 370 369 369 369 369 369 368 367
347 349 349 349 350 353 353 352 352 352 356 353 353 353 352 352 351 350 350 348 348 348 347 345 345 345 346 346 344 345 344 341 342 341 338 339 334 336 337 336 335 340 341 338 339 340 341 343 345 344 343 346 347 350 353 355 356 353 355 361 366 367 368 369 371 374 375 376 375 373 373 372 371 370 370 369 369 369 369 369 369 369 369 369 368
346 350 350 350 350 353 352 352 354 356 357 354 353 353 352 352 351 351 350 349 347 347 348 350 350 349 348 347 345 344 342 340 341 340 340 336 334 334 336 337 337 337 341 343 342 340 340 342 342 342 344 344 346 347 351 354 355 356 358 360 364 366 368 369 370 372 375 376 374 373 373 372 371 370 370 369 369 369 369 369 369 369 368 368 368
344 345 347 349 351 351 353 353 353 353 353 354 354 354 353 353 351 350 349 349 349 350 348 347 348 349 349 348 347 346 346 344 346 344 341 340 338 337 339 339 339 338 339 340 342 341 341 342 344 343 344 343 347 350 352 354 354 358 359 363 365 365 365 368 369 370 373 374 375 374 373 372 371 370 370 370 369 369 369 369 369 368 368 368 368
341 341 343 346 350 350 350 350 350 351 354 353 353 354 353 352 351 350 350 349 349 349 348 348 348 347 347 348 348 346 345 348 348 346 345 344 343 339 338 340 335 337 340 340 340 343 343 342 341 342 342 344 344 349 347 349 353 355 361 363 365 365 367 366 368 370 371 372 373 375 374 373 372 370 370 370 370 369 369 369 369 368 368 368 368
339 342 344 347 349 349 350 350 351 351 352 352 351 352 352 350 350 349 349 350 351 350 349 349 350 349 349 347 346 346 347 350 348 348 346 341 338 337 336 335 335 334 338 338 341 336 342 344 343 344 343 344 347 346 349 346 351 365 364 360 360 361 362 364 367 369 371 372 372 373 376 373 372 372 371 370 370 370 369 369 369 369 369 368 368
343 345 351 349 348 349 348 349 349 350 351 350 349 350 351 352 351 351 352 351 352 352 350 349 347 348 348 348 348 349 352 352 351 348 343 341 340 339 336 332 332 335 335 338 338 337 337 343 346 343 343 349 349 348 348 349 351 358 356 351 351 353 357 361 362 365 369 371 372 373 376 376 375 374 373 372 372 372 371 370 371 371 371 371 370
342 346 345 348 347 347 348 348 350 349 349 350 350 349 350 350 350 351 351 352 352 351 350 348 348 349 350 352 351 350 349 349 349 346 342 342 342 342 340 336 332 329 332 332 334 335 339 338 345 346 344 346 349 349 352 348 345 356 353 352 353 352 350 352 355 362 365 367 369 372 374 376 376 376 375 374 373 373 372 371 372 372 372 372 372
345 348 347 348 347 346 346 346 348 348 349 350 349 349 350 350 349 349 348 351 353 351 352 350 349 347 349 349 348 347 349 349 347 344 343 344 344 342 341 338 335 329 327 329 332 334 338 338 339 351 346 348 354 348 347 349 350 352 350 351 350 353 349 349 351 350 354 362 367 370 372 373 375 375 376 375 375 374 374 373 372 372 373 373 373
351 350 351 350 352 355 351 351 354 355 353 351 349 348 348 347 346 345 346 347 347 347 349 349 347 347 347 347 347 344 343 346 344 347 346 344 342 342 342 341 338 332 330 328 330 336 337 339 338 347 351 345 344 346 346 352 349 349 349 349 349 349 349 350 351 350 350 350 350 353 357 362 366 370 373 373 373 373 373 373 373 373 373 373 373
356 357 357 357 355 351 347 344 342 342 342 343 345 345 345 343 342 341 343 345 344 344 346 347 346 344 340 341 345 344 343 345 346 344 343 343 340 339 340 340 341 336 334 333 328 336 339 339 341 343 344 344 344 345 345 347 349 349 349 351 350 351 353 353 351 351 349 348 347 348 350 356 360 364 370 372 372 371 371 371 371 372 372 371 371
359 357 353 346 342 340 337 335 334 333 333 333 334 334 335 335 334 334 334 337 339 342 342 344 344 340 339 338 341 342 342 342 342 343 343 343 343 341 341 340 339 339 338 335 331 332 340 339 340 342 343 343 344 344 345 347 347 350 350 352 352 352 352 351 350 348 348 347 346 345 345 348 354 358 365 369 370 370 370 370 370 370 370 370 369
351 346 341 339 336 334 332 332 330 329 329 329 330 330 331 330 331 332 332 331 331 333 336 338 340 340 339 336 339 342 343 340 341 341 342 343 343 342 341 340 338 338 336 333 331 332 338 341 340 340 342 343 343 345 344 346 347 348 350 352 352 350 349 349 350 346 345 345 344 343 343 344 347 352 358 366 369 369 370 369 368 367 367 367 365
342 338 336 334 332 331 330 328 328 327 328 328 327 328 327 327 327 328 329 330 329 330 333 331 334 335 337 338 340 342 343 341 341 341 342 341 340 341 340 339 338 337 340 335 333 332 332 338 339 342 342 345 341 344 343 342 343 347 347 349 350 350 348 350 349 348 344 344 344 343 343 342 343 346 352 359 365 367 367 367 366 365 364 361 358
337 335 332 331 330 329 328 327 327 326 327 326 326 326 326 325 325 325 326 326 326 326 327 328 329 330 331 331 332 333 334 336 339 341 341 340 340 339 339 340 338 338 339 336 334 333 332 334 340 340 341 341 340 339 341 341 344 346 346 346 346 348 349 350 349 347 343 343 343 343 342 341 341 343 346 350 354 359 360 359 358 355 352 349 347
333 333 331 329 329 328 326 326 326 326 326 325 325 325 325 325 324 323 323 323 323 323 324 324 326 326 327 327 327 328 330 331 332 333 334 337 338 338 337 338 338 338 338 338 337 334 333 331 337 338 338 338 339 340 342 343 342 342 342 343 344 345 347 348 348 350 346 345 345 344 342 341 340 340 339 340 343 348 349 346 345 343 341 340 340
333 332 331 330 328 328 326 326 325 326 326 326 325 325 325 325 324 322 322 322 322 322 323 323 325 324 325 324 325 326 327 328 329 330 332 332 333 334 335 336 337 338 338 338 337 336 335 333 334 338 339 338 339 339 340 338 339 340 342 342 343 344 344 345 346 348 346 345 344 343 342 342 341 340 338 338 338 340 340 339 337 336 334 334 334
331 330 330 329 328 326 326 326 326 326 327 326 325 325 325 324 323 322 322 322 322 322 322 323 323 323 323 323 324 324 325 325 326 329 331 332 333 333 333 334 333 334 336 336 336 336 333 332 333 333 337 336 336 336 338 338 336 335 337 340 341 341 341 341 343 345 348 350 349 347 343 341 339 338 339 339 337 337 336 335 335 334 333 331 330
330 329 328 327 327 326 326 326 325 325 326 326 326 326 325 324 322 321 320 321 321 321 322 322 322 322 322 322 323 323 324 326 327 329 331 333 333 333 334 334 335 334 334 333 333 332 332 332 334 335 336 338 336 333 337 338 336 335 334 335 337 339 341 341 342 344 349 349 347 346 346 347 346 344 335 334 335 334 334 334 334 335 337 335 330
328 327 326 325 325 325 324 324 325 325 325 326 326 326 326 324 322 320 320 321 320 321 321 322 322 322 322 323 323 324 325 328 330 330 331 330 333 331 330 333 334 333 332 333 333 333 332 332 332 332 334 332 335 336 337 336 333 335 336 335 333 335 339 342 343 344 347 349 349 348 348 348 347 343 339 339 339 338 338 338 337 340 341 340 335
327 326 325 324 323 323 323 323 323 324 324 325 326 325 325 325 323 320 320 320 320 320 321 321 321 322 322 322 323 325 328 328 331 331 331 331 330 328 330 330 330 329 331 331 330 330 330 330 331 332 332 331 332 332 332 332 331 331 334 335 334 336 338 340 343 343 341 341 341 338 339 341 339 339 342 347 349 345 343 340 339 340 339 337 333
326 326 325 324 323 322 321 321 322 322 323 325 328 328 328 326 324 321 320 320 320 320 320 320 321 322 322 322 324 327 327 328 329 331 331 330 330 331 331 329 329 329 330 329 329 330 329 328 328 329 328 329 330 331 331 333 335 336 334 334 333 335 336 336 339 336 338 336 334 335 338 339 340 341 341 341 342 342 341 340 335 334 331 329 328
326 326 323 323 322 322 321 320 321 321 323 325 326 325 325 327 327 323 320 320 321 321 321 320 320 321 322 323 324 325 326 327 329 331 330 331 331 330 333 332 333 333 331 329 331 331 330 329 331 331 329 328 329 332 332 333 335 334 333 334 332 331 328 328 328 332 339 337 333 333 334 338 340 338 339 339 339 338 336 333 329 329 328 328 328
325 324 322 322 322 321 320 320 320 322 323 325 323 324 324 324 326 324 320 319 320 321 321 321 321 322 323 323 324 325 325 327 328 328 329 331 330 331 331 331 332 333 333 332 332 332 331 330 330 331 330 329 331 333 332 333 333 333 333 331 331 332 331 328 329 329 335 338 334 332 333 339 341 338 336 337 339 338 332 329 327 328 327 327 327
324 323 322 322 321 321 320 320 321 322 322 324 322 322 322 323 325 323 319 320 321 321 322 322 323 323 324 324 324 324 325 328 328 328 328 328 329 331 332 331 333 334 332 333 335 333 332 333 331 330 331 332 331 332 334 334 335 332 333 332 333 333 332 330 331 332 334 338 335 332 331 335 338 337 336 338 339 336 332 328 327 327 326 326 325
324 323 323 322 322 322 322 321 321 321 322 324 322 321 321 322 324 322 319 320 320 321 322 323 324 324 325 324 323 323 326 327 328 328 327 326 327 327 327 328 328 331 331 332 333 335 336 334 332 330 333 335 333 334 336 336 333 332 332 332 332 332 332 330 333 333 336 337 337 337 333 334 337 336 334 336 340 337 330 323 323 324 325 324 324
323 323 323 323 324 324 322 321 321 320 320 323 321 320 320 321 322 321 319 320 321 322 323 324 325 325 326 325 323 323 324 325 328 328 328 324 325 325 326 325 327 329 329 330 331 333 335 334 334 333 334 335 336 336 337 336 336 336 335 334 333 333 333 335 335 336 336 337 337 339 330 333 336 335 333 336 338 337 334 324 322 323 324 324 324
323 323 323 323 322 322 322 321 318 318 319 323 320 319 319 320 321 319 320 321 322 323 323 325 326 327 327 325 322 323 322 324 326 327 330 327 323 323 323 324 325 327 328 332 334 336 336 334 334 334 334 336 337 337 338 337 337 336 338 336 334 332 332 330 328 330 332 335 336 335 332 332 334 333 333 336 337 334 332 329 324 323 322 322 322
322 322 322 323 324 323 323 322 320 318 319 322 319 318 318 320 321 319 320 322 323 323 324 325 326 327 328 328 323 323 322 323 324 322 326 329 322 321 321 322 324 325 327 329 333 332 332 330 330 331 332 333 334 333 332 334 336 338 335 333 331 330 331 328 328 330 329 333 332 333 333 331 333 334 333 334 335 333 331 330 327 322 321 320 320
320 321 321 321 321 321 321 320 322 318 319 322 318 316 316 318 320 318 320 322 322 322 324 326 326 326 328 331 330 326 324 324 322 321 324 327 322 321 320 319 323 323 325 328 330 331 331 331 330 331 333 334 336 337 337 336 335 336 334 331 332 332 330 329 327 329 331 331 329 331 332 329 332 334 332 332 332 332 331 332 334 332 326 321 319
320 321 321 318 318 319 320 320 322 319 319 320 319 315 315 316 320 319 320 321 321 321 323 325 326 326 327 328 330 328 327 325 320 320 323 327 323 322 319 319 321 322 323 326 327 326 327 327 328 331 331 333 335 335 336 337 336 335 332 332 335 335 331 330 330 330 328 329 329 330 330 329 332 332 333 330 325 327 330 330 330 331 333 333 330
Wind_Speed
4 3 3 4 5 4 4 5 5 5 4 5 5 5 5 4 4 5 4 5 5 6 5 6 5 6 6 8 8 7 6 6 5 5 6 5 5 7 12 12 12 13 13 14 14 14 14 14 15 16 16 17 17 17 17 16 16 16 16 16 15 15 15 15 15 15 15 15 15 15 14 14 13 13 13 12 12 12 12 12 12 12 12 12 12
4 4 4 5 5 5 4 5 5 5 4 5 4 4 5 4 4 5 5 5 5 5 5 6 7 7 6 7 8 7 5 5 6 5 5 5 5 6 12 12 12 12 13 14 14 14 14 14 14 15 17 17 18 18 18 18 17 17 17 17 16 16 15 16 16 15 15 15 15 15 15 15 14 14 14 13 12 12 12 12 12 12 12 12 13
4 5 4 5 5 5 5 4 5 5 4 5 4 4 4 4 5 5 4 5 5 4 5 6 6 7 6 7 8 6 6 5 6 6 5 5 5 5 7 13 13 13 13 13 14 14 14 14 14 15 17 17 18 19 19 19 18 17 17 17 17 16 16 16 16 16 15 15 15 15 15 15 15 15 14 14 13 13 13 12 12 12 13 13 13
5 5 5 5 5 5 5 5 5 5 4 5 5 4 5 5 5 5 5 4 5 5 4 5 7 7 6 7 7 6 6 5 5 6 5 5 4 5 5 6 11 13 13 13 13 14 15 15 14 15 16 17 18 19 20 19 19 18 18 17 18 18 17 17 16 16 16 15 15 15 15 15 15 15 15 15 14 13 13 12 13 13 13 13 13
5 6 6 5 5 6 5 5 5 5 4 5 6 5 4 5 5 4 5 4 5 6 5 5 6 6 5 7 6 7 5 5 5 5 6 5 4 5 4 5 5 9 12 13 12 12 14 15 15 15 15 16 18 19 20 21 21 20 19 19 19 18 18 17 16 16 16 16 16 16 15 15 15 15 14 15 15 14 14 13 13 14 14 14 14
5 6 5 5 5 6 6 6 6 6 5 5 5 4 5 5 6 3 5 4 5 5 4 5 5 5 5 6 5 5 5 5 4 4 4 5 4 4 5 4 4 4 5 9 12 12 11 13 15 15 15 15 17 18 19 20 21 21 20 19 20 19 18 17 17 17 17 17 17 16 16 16 15 15 15 16 16 15 15 14 14 14 14 14 14
6 6 6 5 5 5 6 6 5 4 5 5 5 5 5 6 4 5 4 4 5 5 5 5 5 6 6 4 5 6 5 5 4 4 4 4 4 5 4 4 3 4 4 4 7 11 12 11 13 14 15 16 15 17 18 19 20 21 20 20 20 19 19 18 17 16 17 18 18 17 16 17 17 17 16 16 16 15 15 15 15 14 14 14 14
6 5 5 5 5 5 6 5 5 5 6 5 4 6 5 5 5 4 5 6 5 6 4 5 5 6 5 5 5 5 5 5 5 5 4 3 4 5 4 4 4 4 4 4 4 5 11 11 11 12 13 14 14 14 17 18 19 21 21 21 20 20 19 19 18 17 17 17 19 18 17 17 16 17 17 17 16 16 16 15 15 15 15 15 15
5 5 5 6 5 6 6 6 4 5 6 5 5 5 4 4 6 5 5 6 5 7 6 4 5 5 5 5 5 5 5 5 5 5 3 4 5 5 4 5 4 6 4 4 4 4 7 11 12 12 13 14 14 13 14 17 19 20 21 21 21 20 20 19 18 18 17 17 19 19 18 17 17 16 16 17 16 16 15 15 16 16 16 16 16
5 5 6 6 6 6 7 5 4 4 5 5 5 3 4 4 6 6 4 5 6 6 7 5 4 5 5 6 5 4 5 5 5 4 3 5 5 5 4 4 4 5 4 4 4 4 4 7 11 12 13 13 14 13 13 15 17 19 20 21 20 20 20 19 19 19 18 18 19 19 18 18 18 17 16 16 16 16 17 17 16 16 17 16 16
6 6 6 6 6 7 7 6 4 4 4 4 4 4 4 4 5 7 4 5 5 6 6 5 5 5 5 6 5 6 5 5 5 5 5 5 5 5 4 4 4 4 4 4 5 5 5 4 4 4 6 11 11 12 13 14 15 17 19 20 20 21 20 20 19 19 18 17 19 19 18 18 18 18 17 17 17 16 16 17 17 17 17 17 17
7 7 6 6 6 6 7 6 4 4 5 5 5 5 6 5 6 6 7 5 4 6 5 5 5 6 6 6 5 5 7 5 4 5 4 5 6 4 5 5 4 4 5 5 4 5 5 5 4 4 4 6 10 10 12 13 14 16 18 20 20 20 20 19 19 20 19 19 18 17 18 17 18 18 18 17 16 16 16 16 17 17 17 17 17
7 6 6 6 6 6 6 6 5 5 5 6 6 6 5 5 4 3 4 5 5 5 4 3 3 6 5 5 7 5 6 6 6 4 4 5 4 5 4 4 5 5 5 4 5 5 5 5 4 4 5 4 5 8 10 12 13 15 16 18 20 20 20 19 19 19 19 20 19 16 16 16 18 18 17 17 16 16 16 16 16 16 16 16 16
6 6 6 6 7 6 6 7 6 5 6 5 5 6 5 4 3 4 3 5 5 5 2 2 3 3 5 7 7 5 5 4 4 4 4 4 5 4 4 5 6 5 4 3 4 5 6 5 4 4 5 4 4 3 4 6 9 14 15 16 19 20 20 20 19 20 20 20 18 17 17 17 17 17 16 16 16 16 16 16 16 16 16 16 15
7 6 6 7 7 7 7 6 6 5 5 6 6 7 6 7 5 5 6 3 5 5 5 5 4 0 0 3 4 8 5 4 2 3 4 5 3 4 4 5 6 5 4 3 4 4 5 4 5 5 5 5 4 4 4 5 7 10 14 15 16 18 20 20 19 19 19 19 17 16 16 17 17 16 16 16 17 16 16 17 16 16 16 16 16
7 7 7 7 7 8 7 6 7 5 6 7 7 8 6 6 6 6 4 6 4 4 3 5 5 2 4 1 3 1 6 4 4 5 4 5 3 5 4 5 5 5 3 3 4 4 4 4 5 5 5 5 4 4 4 5 7 11 13 15 16 16 18 19 19 20 19 18 16 16 16 16 16 16 16 16 16 16 16 16 16 16 16 16 16
7 8 8 8 7 7 7 7 6 6 6 6 7 8 7 6 6 5 6 6 7 4 3 4 5 4 4 2 3 2 4 5 4 8 0 2 3 4 4 5 5 4 4 3 3 3 4 4 4 4 5 4 4 4 4 5 5 6 8 13 15 15 15 16 18 19 18 18 16 16 16 16 15 15 15 15 15 16 16 16 16 16 16 16 15
7 8 8 7 8 7 7 7 7 6 6 7 6 6 7 7 6 6 7 7 6 5 5 2 4 4 6 6 5 6 6 3 3 7 3 3 7 3 4 4 4 5 4 5 4 2 2 3 3 4 4 4 4 4 5 5 5 5 6 7 14 16 16 17 17 18 18 17 16 16 16 16 16 15 15 15 15 16 15 16 16 16 16 16 16
8 7 7 7 7 7 7 7 7 6 5 5 6 7 6 6 4 5 7 5 4 6 7 6 2 3 5 6 6 6 5 3 4 2 10 9 5 5 6 5 5 4 5 5 4 3 3 2 3 3 3 3 3 4 4 5 7 8 9 8 11 13 15 16 16 17 17 16 16 16 16 16 16 15 15 15 15 15 15 16 16 16 16 16 16
7 6 7 7 7 7 7 6 7 7 6 6 7 6 5 5 6 6 5 6 6 7 8 6 5 4 4 4 5 6 5 3 4 6 5 5 13 8 6 7 4 4 5 5 5 4 3 3 3 3 3 3 3 3 4 5 5 6 7 12 12 13 13 15 15 17 16 16 15 15 15 15 15 15 15 15 15 15 15 15 14 14 15 15 15
6 7 6 6 6 7 6 6 7 7 5 6 6 6 7 8 7 6 7 6 6 6 5 8 5 7 6 5 4 4 2 5 7 6 6 6 10 8 11 4 3 5 4 4 4 3 4 4 3 3 3 4 4 4 3 4 4 5 7 11 13 14 14 15 15 16 16 15 15 15 15 15 15 14 14 14 14 14 14 14 14 14 15 15 16
6 6 6 6 6 5 5 7 7 7 6 6 7 7 8 8 9 8 7 7 6 6 8 8 7 7 6 6 6 5 2 3 2 4 3 7 10 8 5 7 9 8 2 4 5 5 5 4 4 3 4 4 4 4 3 4 4 4 6 11 12 13 14 15 15 15 16 15 15 15 14 15 14 14 14 14 14 14 14 15 15 15 15 15 15
5 5 5 6 6 5 6 7 6 6 6 7 7 7 7 7 7 7 8 8 8 7 7 8 7 7 7 7 8 7 9 8 8 7 8 7 7 9 8 6 8 9 9 4 5 5 5 4 4 4 5 4 4 4 4 4 4 5 9 10 12 13 14 15 15 14 15 15 15 15 15 14 14 14 14 14 14 14 15 15 15 15 15 15 15
5 5 6 5 5 6 6 6 7 7 8 7 7 7 7 6 6 7 8 8 8 8 7 8 8 7 7 7 7 8 8 9 9 8 10 10 9 9 3 9 8 8 7 6 6 6 6 6 6 5 5 4 4 4 4 3 4 8 7 8 9 12 13 14 14 14 14 15 15 15 15 14 14 14 14 14 14 14 15 15 15 15 14 15 15
6 6 6 5 4 5 6 6 7 7 7 7 8 8 8 7 8 8 8 9 8 7 7 8 7 7 7 7 7 8 9 9 9 9 9 7 1 6 4 4 10 10 7 5 5 2 3 5 5 5 5 3 4 4 3 2 3 4 5 3 7 8 10 12 13 13 14 15 15 14 15 15 14 14 14 14 14 14 15 15 15 15 15 14 14
7 6 4 3 3 6 6 7 6 7 7 8 8 8 8 8 9 9 10 8 6 7 8 7 6 8 7 7 7 8 9 7 8 7 1 9 4 5 8 7 9 9 6 4 3 5 3 2 3 3 3 4 4 4 2 2 2 2 3 2 3 5 6 8 10 12 13 14 14 14 12 15 14 15 15 14 14 15 15 15 15 14 14 14 13
5 5 4 4 5 5 7 7 8 8 7 8 9 8 8 7 8 8 7 6 6 5 5 6 7 7 8 8 8 7 4 3 2 6 8 6 7 8 7 9 7 2 6 5 5 7 9 4 2 2 3 4 4 3 1 2 2 3 3 2 2 4 4 4 6 8 10 11 13 13 12 13 14 14 14 14 14 14 15 14 16 16 16 15 14
5 4 6 5 6 7 6 7 7 7 7 6 6 6 6 6 6 5 5 4 4 4 4 4 6 6 7 6 4 3 1 2 4 7 8 9 8 5 3 8 6 8 7 9 7 9 5 5 2 1 2 2 1 1 3 3 2 5 3 1 2 1 3 3 3 4 6 8 10 11 12 13 14 14 14 13 14 15 15 15 15 16 16 16 15
6 4 6 5 5 6 6 6 4 4 4 5 5 5 4 4 5 6 6 5 4 5 4 3 3 3 4 4 3 2 3 2 2 4 3 3 4 4 9 8 6 5 7 7 9 6 1 3 3 1 1 2 2 2 2 3 5 7 5 4 3 3 4 6 5 4 4 5 6 9 10 12 13 14 15 15 15 15 15 15 16 16 16 16 15
5 5 5 5 4 4 4 5 6 7 7 6 7 8 8 8 8 8 8 6 7 7 6 4 4 4 4 4 4 2 1 1 1 2 3 4 4 7 7 3 5 7 10 7 11 5 5 1 2 1 2 5 5 5 4 2 4 6 6 6 6 5 6 7 7 7 6 5 5 7 8 8 10 12 13 14 15 15 15 15 15 16 15 15 14
4 4 3 4 5 6 6 6 7 7 8 8 8 8 8 7 7 7 8 7 8 8 7 5 4 4 5 6 4 2 2 2 2 2 3 4 5 7 6 6 7 9 8 7 9 4 3 2 0 0 2 4 5 7 8 7 5 7 6 5 5 8 9 5 6 8 8 7 7 8 8 6 7 10 12 13 14 14 14 15 15 15 14 14 14
3 5 6 7 7 7 7 7 8 7 8 8 8 8 7 7 7 6 7 7 7 6 5 4 2 3 5 6 5 4 3 3 3 3 3 5 6 7 5 6 8 9 8 9 11 11 7 7 6 6 8 8 5 6 7 6 6 5 4 3 5 6 5 4 5 7 8 8 7 8 9 10 8 10 12 13 13 13 13 13 13 13 13 13 13
6 7 7 7 7 7 8 7 8 7 8 8 7 6 7 7 6 6 6 6 7 5 4 4 4 5 6 8 6 4 5 6 3 3 2 3 5 6 5 3 5 5 6 8 9 11 9 5 4 6 6 6 6 4 7 5 4 4 4 4 4 4 5 4 5 6 7 9 9 9 9 10 10 9 11 12 12 12 11 10 11 12 12 12 11
7 8 8 7 7 7 7 8 7 7 7 7 7 6 7 6 6 5 5 5 4 3 2 2 3 4 6 7 7 8 8 8 8 7 4 4 4 5 5 4 4 6 6 7 8 8 11 7 7 4 5 2 6 4 5 6 7 6 7 5 3 3 4 4 4 5 8 8 9 9 9 9 10 9 8 8 8 8 9 11 12 11 11 11 10
7 7 7 7 7 7 8 8 7 7 7 7 7 7 7 7 6 6 5 5 4 4 4 3 3 4 5 6 7 8 7 8 7 7 8 8 6 6 6 5 6 7 7 9 8 8 8 8 8 7 4 3 3 4 5 5 7 6 6 6 5 5 5 4 4 4 6 8 8 8 8 8 8 8 7 6 6 8 9 9 9 10 9 9 9
8 7 7 7 7 7 8 8 7 7 7 7 8 7 7 7 7 6 6 6 5 5 4 4 4 4 4 4 5 7 7 7 7 6 6 6 6 5 6 6 6 6 5 7 9 9 8 8 6 8 1 2 4 3 3 4 6 7 7 7 6 7 7 5 5 4 4 5 6 5 4 4 4 3 5 6 5 8 8 7 7 8 7 7 7
7 6 6 7 8 7 7 7 7 7 7 7 7 7 6 6 6 6 6 5 5 4 4 4 5 4 5 5 5 6 6 6 6 6 5 6 5 5 5 5 5 5 5 4 5 5 6 8 8 6 6 5 3 3 3 5 5 6 6 6 6 6 6 5 4 5 7 8 6 5 5 6 7 8 10 9 12 9 8 8 8 6 6 6 7
7 7 7 7 7 8 7 7 7 6 6 6 6 6 6 6 6 6 6 6 6 5 5 5 5 5 4 5 5 5 5 5 6 6 5 6 5 4 4 4 4 5 6 6 5 5 6 6 7 9 7 6 4 3 2 4 6 7 6 5 5 5 5 6 5 3 3 4 3 4 5 5 8 11 11 10 9 8 7 5 4 4 4 5 6
7 7 7 8 7 7 7 7 7 6 5 5 5 6 5 5 5 6 5 5 5 4 4 5 4 4 4 4 5 5 5 5 6 6 6 5 4 5 4 4 4 5 5 5 5 6 5 6 6 7 7 3 1 5 2 4 7 6 7 7 4 1 2 4 5 3 2 4 6 7 5 5 5 5 9 6 4 3 1 1 2 2 3 3 4
8 7 7 7 7 7 7 7 6 6 5 6 7 6 4 3 4 5 5 5 5 5 5 5 5 4 4 4 4 5 6 5 5 6 6 6 5 5 4 3 4 5 5 4 4 4 5 5 5 5 4 4 4 4 3 5 6 4 1 4 7 7 6 3 3 4 2 2 3 1 1 2 4 11 14 12 8 6 5 1 2 2 2 3 4
7 7 7 7 7 7 6 6 6 6 5 6 6 7 7 5 4 6 5 5 5 6 6 6 5 5 5 5 5 6 7 9 11 9 7 8 5 6 6 5 5 5 4 4 4 4 5 5 5 4 4 4 4 4 5 5 5 6 6 5 6 6 5 5 3 6 5 5 9 11 11 12 8 6 2 2 4 7 10 10 8 8 9 7 6
7 6 7 7 7 6 6 6 5 4 4 4 10 13 11 8 4 4 4 5 5 7 7 8 8 7 6 5 6 11 10 10 10 11 11 11 12 7 5 6 5 5 4 3 3 3 3 4 4 4 4 4 4 5 5 5 6 5 5 4 5 5 4 4 2 5 6 5 7 5 7 8 5 5 7 8 6 6 5 6 6 5 6 7 7
7 6 6 7 6 6 5 4 4 3 3 6 14 13 12 12 6 3 4 4 5 6 7 7 7 8 8 8 7 8 9 9 9 12 11 13 13 11 11 9 5 2 3 3 2 3 4 3 2 2 3 4 4 4 5 5 4 4 5 4 3 3 4 4 4 4 6 6 4 4 5 4 3 4 7 7 7 6 7 7 9 10 10 10 10
6 6 6 6 5 4 3 3 2 3 5 12 12 12 11 11 9 5 3 4 6 6 7 8 7 8 9 9 8 5 7 8 8 7 9 12 13 11 10 10 8 8 8 5 3 3 3 3 4 3 4 4 4 4 4 4 5 5 4 1 1 1 3 2 4 3 2 5 4 5 5 6 4 7 8 8 7 7 9 11 12 13 13 14 13
6 7 6 5 4 2 2 2 5 6 4 10 10 11 10 10 10 7 4 4 4 7 8 8 8 9 8 8 8 7 6 10 8 6 7 7 10 12 11 11 10 12 10 10 10 5 2 3 4 4 4 5 5 3 4 5 4 4 4 2 1 1 2 3 3 4 4 3 4 5 5 2 2 6 6 4 7 7 8 11 15 16 16 15 13
6 6 5 4 3 2 3 5 4 4 3 9 10 11 11 11 11 8 4 4 4 6 7 8 8 9 9 8 7 7 7 8 7 7 6 6 5 5 5 5 5 8 10 10 9 9 6 3 3 3 4 4 4 5 5 5 5 4 4 3 3 3 3 3 2 4 4 4 2 3 5 5 5 7 7 7 8 8 8 11 14 15 14 12 13
7 6 5 4 3 3 4 4 2 3 3 9 9 11 11 10 10 7 4 4 4 6 7 7 8 9 9 7 6 6 6 7 7 10 6 5 5 4 4 5 5 5 5 7 7 5 4 4 5 5 4 4 5 4 3 3 4 4 3 2 2 3 3 3 4 5 5 7 6 1 4 4 4 8 7 6 7 8 8 10 13 14 15 15 15
6 5 3 3 4 5 3 2 2 3 3 9 10 11 11 9 8 5 4 5 6 8 8 8 7 5 6 5 4 4 6 6 10 14 12 6 5 6 6 6 6 6 6 7 9 10 8 6 5 6 5 7 7 5 4 4 3 2 2 3 1 2 3 4 5 4 6 7 9 5 4 5 4 7 5 6 7 8 8 8 11 13 14 14 15
5 4 4 4 3 2 2 2 3 4 4 8 10 11 10 10 6 5 5 5 5 7 8 8 7 7 8 6 3 4 4 5 10 11 12 9 6 7 6 6 6 7 9 9 11 12 12 12 12 12 11 11 11 9 5 5 4 2 1 2 4 1 4 5 4 5 5 6 7 7 3 5 4 5 7 6 6 7 8 6 6 11 14 15 15
5 4 4 4 3 2 3 4 4 4 5 8 13 12 10 10 6 5 5 5 5 5 5 6 6 8 10 19 15 7 6 6 9 9 10 8 6 6 6 6 7 8 8 8 5 6 10 10 11 11 12 12 12 11 10 11 12 9 2 4 2 3 5 4 4 3 3 5 7 8 2 3 2 3 6 5 6 5 6 6 6 6 9 12 15
5 4 3 4 2 2 3 4 7 6 5 7 12 12 11 10 7 4 4 5 5 6 5 6 6 6 7 10 18 15 11 8 7 6 8 7 5 6 6 5 7 10 9 8 7 8 8 7 8 9 9 11 9 8 10 16 16 13 7 6 3 2 5 5 5 3 4 4 7 9 3 3 2 2 0 3 3 4 5 6 6 5 5 5 7
Wind_Direction
255 256 259 258 259 257 257 258 255 258 255 254 245 267 268 262 263 269 272 275 278 280 280 280 279 278 274 280 278 275 268 263 255 250 248 248 246 247 244 240 233 232 234 237 240 242 239 232 230 228 225 225 224 220 219 220 220 218 214 212 213 212 214 218 219 219 220 219 218 218 218 217 218 221 225 224 223 222 217 215 216 217 217 218 217
245 250 245 255 252 257 254 256 258 261 258 265 257 262 269 276 269 270 274 275 274 275 286 286 284 282 277 279 282 276 267 260 261 253 248 244 245 252 253 250 242 235 231 232 237 238 237 233 227 227 226 223 223 220 219 218 219 217 215 212 211 212 211 215 218 219 219 219 220 217 217 219 219 219 220 224 226 225 222 221 221 219 219 219 219
240 244 242 249 255 253 255 255 259 254 246 257 256 248 257 257 265 267 263 266 269 278 279 283 284 283 279 279 278 284 278 266 261 256 246 241 242 244 252 253 250 246 238 231 231 234 236 234 229 225 226 225 221 220 219 217 217 218 216 213 210 211 213 213 214 217 217 217 219 220 219 218 218 218 220 221 223 225 227 225 224 223 221 222 222
241 245 241 251 257 257 259 254 254 252 240 252 257 244 243 253 254 254 258 261 272 271 257 266 277 278 284 280 279 279 281 274 261 257 256 251 236 240 243 248 251 251 248 240 232 230 232 235 233 226 222 225 224 221 222 219 216 217 217 214 212 211 212 212 213 213 216 217 216 218 220 219 219 218 219 220 223 224 224 225 227 226 225 224 224
241 242 249 251 257 262 263 258 259 260 244 250 260 257 251 256 258 253 262 255 263 266 263 254 265 276 284 281 285 287 285 278 268 259 256 257 244 242 241 242 244 251 252 251 245 235 231 233 234 232 225 221 224 223 222 222 219 217 216 217 216 213 212 213 213 213 213 215 215 215 217 218 220 220 221 221 222 223 223 224 225 227 226 226 226
240 247 244 253 258 259 262 265 262 259 258 250 254 251 251 251 255 240 254 252 258 266 270 274 269 275 272 274 285 283 291 287 271 262 262 260 256 246 248 243 242 243 247 254 255 251 241 236 237 237 233 226 222 224 222 221 222 221 218 217 216 216 215 213 213 214 214 214 215 215 216 216 217 218 220 223 225 226 227 226 227 227 228 229 229
232 240 251 248 260 263 260 258 265 261 257 247 241 252 243 251 258 255 262 255 255 265 263 266 271 270 269 274 277 286 291 283 286 274 262 266 262 258 254 253 249 244 246 243 248 251 251 241 236 239 240 238 228 222 222 221 221 221 221 219 217 217 216 217 215 214 214 215 215 215 215 215 216 217 218 220 222 223 227 228 229 229 229 230 230
240 236 252 252 252 262 261 265 262 265 258 256 239 251 247 257 252 241 272 274 276 277 259 265 265 272 276 274 272 276 283 288 285 276 266 274 264 263 253 246 244 245 247 239 237 242 247 249 244 238 239 241 237 224 219 220 219 221 221 221 220 220 220 219 219 218 216 216 216 215 215 215 214 215 218 219 219 219 222 224 226 230 231 232 233
238 235 240 253 252 253 260 251 245 245 255 251 236 241 244 259 269 235 226 263 281 281 284 267 275 274 275 274 276 283 282 282 275 268 289 263 265 263 258 257 249 250 244 240 240 240 244 246 247 244 240 238 238 233 223 218 219 221 221 221 220 220 220 220 221 222 222 219 219 218 217 217 215 216 216 218 219 218 218 220 223 226 228 230 232
234 229 230 239 246 253 263 255 250 252 256 251 249 249 243 243 272 268 220 232 259 267 274 280 274 282 284 279 279 275 272 275 269 272 260 267 269 266 263 258 253 251 250 252 255 246 245 246 248 249 243 236 233 233 224 219 217 219 221 222 221 221 220 220 222 224 224 223 223 222 221 220 220 218 217 219 220 220 220 221 222 224 226 229 232
234 229 228 239 245 250 257 262 249 254 258 266 273 271 255 235 242 274 241 227 246 260 266 283 295 288 282 285 289 279 276 267 265 265 257 265 279 279 278 258 251 249 243 238 236 234 238 231 227 236 247 248 240 233 227 219 215 215 218 221 222 222 221 222 223 225 227 225 226 226 224 223 222 222 221 220 222 223 223 223 224 223 224 226 228
234 229 227 234 240 242 246 245 228 227 247 265 273 268 262 262 255 246 281 275 226 243 255 269 275 269 275 287 277 278 280 269 271 258 267 270 266 274 277 278 266 259 250 252 247 256 243 241 233 229 241 254 253 244 233 227 218 214 216 219 219 221 222 222 225 227 228 226 226 227 227 225 224 225 224 222 222 222 222 223 225 227 226 225 225
244 237 237 238 238 242 242 246 227 221 231 242 249 261 253 246 265 258 257 281 284 255 260 224 277 306 308 299 304 286 279 288 277 277 264 259 258 267 274 287 276 270 271 267 266 266 258 241 229 223 225 226 247 252 247 232 222 217 216 218 220 221 221 220 223 226 228 230 229 227 225 225 228 229 226 225 224 222 223 224 225 227 227 228 228
239 232 236 232 242 244 241 246 234 230 232 243 256 255 262 257 245 289 217 245 265 255 218 143 336 257 317 320 311 307 282 285 275 283 270 258 257 264 274 273 272 277 275 256 263 259 261 255 234 237 226 222 223 217 228 238 229 220 217 215 218 221 221 220 221 223 226 227 227 224 223 222 224 228 225 225 226 226 226 226 226 227 229 230 230
235 233 235 235 237 243 246 241 237 230 240 247 246 257 252 256 242 241 282 243 248 261 233 193 248 118 141 327 315 341 331 333 335 308 275 253 258 257 256 250 261 261 255 258 247 253 260 258 248 232 230 232 229 219 219 220 221 221 222 219 218 220 221 222 221 223 224 226 227 227 225 223 223 222 223 225 228 227 228 231 230 229 232 234 234
240 238 239 240 232 235 243 239 240 224 229 248 253 257 257 257 240 230 219 275 252 276 206 181 193 123 313 200 282 86 306 309 301 281 261 287 260 256 249 253 261 262 247 245 242 236 246 249 249 236 230 224 221 214 221 224 222 223 222 224 221 219 221 221 223 224 224 226 227 227 227 226 225 224 224 224 227 228 229 229 231 233 234 237 238
242 241 239 244 238 236 235 239 237 230 221 235 246 245 251 249 241 237 209 226 264 252 291 171 193 190 177 310 320 310 229 278 343 298 342 301 254 246 245 265 273 281 292 269 235 232 238 238 234 242 244 245 235 226 224 220 221 224 226 224 223 220 218 220 222 224 223 223 224 224 226 227 227 227 227 226 225 225 225 227 230 234 235 236 237
240 242 241 245 245 237 234 237 239 231 219 230 246 256 252 241 234 222 235 218 238 272 273 235 196 187 204 215 205 262 289 266 3 306 310 220 299 288 260 263 262 294 296 293 296 262 236 258 247 244 232 232 239 250 244 236 222 219 219 223 219 218 214 216 220 222 222 223 221 221 224 225 227 228 228 229 229 228 227 226 228 231 232 234 236
244 236 239 239 242 239 232 233 240 241 230 230 244 243 249 249 244 213 231 231 187 243 255 264 342 234 212 219 232 239 222 269 271 354 329 313 257 257 278 250 252 270 275 280 286 286 267 247 266 267 266 254 242 246 248 244 236 232 218 210 210 220 217 215 217 219 219 219 220 220 221 223 224 226 227 229 230 230 229 230 229 230 232 235 238
245 240 233 233 231 236 230 233 236 239 230 232 239 245 251 254 241 235 235 219 211 224 259 254 233 270 178 205 218 233 228 221 88 148 194 264 299 296 248 246 233 221 232 257 258 248 255 255 249 257 266 271 251 254 248 247 244 238 234 221 211 217 217 216 214 216 218 218 218 220 221 221 221 223 226 228 229 229 231 233 234 233 235 239 240
241 242 236 229 227 231 227 230 234 239 228 240 241 240 242 254 255 242 237 238 215 227 228 259 223 253 265 261 218 231 185 147 150 151 176 235 278 274 292 309 241 244 244 233 239 227 225 229 241 269 274 270 266 257 253 251 248 240 239 229 221 220 217 215 212 212 215 217 217 219 220 221 220 220 222 226 228 229 229 230 232 233 234 237 242
250 246 248 239 239 237 236 236 239 243 237 243 250 252 251 249 253 254 254 253 242 222 226 240 242 247 236 253 265 259 186 148 186 172 230 211 238 263 245 287 305 301 342 282 260 242 234 230 240 253 262 260 256 242 243 239 233 241 241 236 230 226 222 217 215 212 211 214 218 219 219 220 219 218 219 221 224 227 227 227 228 230 233 235 239
269 260 242 239 237 236 239 242 242 244 245 246 248 249 254 251 256 255 251 246 251 241 242 242 239 237 230 218 230 226 237 226 210 194 183 203 235 261 268 256 267 289 282 271 256 257 251 238 234 241 246 246 246 252 256 258 248 243 251 243 230 232 229 226 221 215 211 211 216 218 217 219 219 218 218 218 221 224 226 227 228 229 232 235 237
269 264 255 241 242 243 241 250 251 249 248 246 254 253 256 259 258 255 256 249 248 248 244 249 235 237 234 227 233 237 234 228 226 203 200 212 204 241 8 353 306 257 282 296 254 235 233 235 232 237 239 238 249 247 252 259 273 278 277 260 246 237 234 233 231 226 216 215 216 217 216 217 219 219 218 219 220 224 226 227 226 226 229 232 235
261 258 262 255 259 267 259 254 260 255 257 260 258 259 260 260 260 260 258 257 252 249 251 247 241 240 239 224 231 232 233 231 225 223 221 209 85 22 357 239 260 275 269 271 283 282 211 214 221 219 237 232 249 264 261 253 273 275 277 287 267 257 244 236 234 230 227 226 224 215 215 216 216 218 220 218 220 224 227 229 228 226 226 229 232
274 274 323 321 265 252 259 258 253 257 255 252 256 259 261 262 265 265 267 269 275 262 259 266 253 238 231 240 229 230 240 235 230 236 9 59 71 206 237 255 246 268 299 290 294 293 279 242 227 236 216 210 234 251 242 258 259 349 36 20 321 296 277 255 240 232 229 228 228 229 213 218 218 218 220 219 218 222 226 228 231 230 228 228 231
277 292 307 294 270 256 247 248 252 250 252 254 258 261 260 264 268 274 281 285 276 273 261 250 252 243 237 240 251 264 294 317 350 55 87 139 190 200 195 252 274 232 271 259 275 250 265 281 278 215 219 228 235 259 267 245 277 24 71 70 55 20 342 299 264 251 243 239 235 232 220 218 220 222 220 215 215 216 220 221 227 230 231 229 229
283 280 268 251 260 260 257 254 258 264 269 273 279 280 284 282 287 301 309 349 300 296 275 258 255 257 255 267 299 12 321 203 160 156 166 181 198 175 182 238 262 286 278 284 274 266 228 253 288 238 280 270 31 228 283 287 288 349 22 45 62 37 48 12 329 265 240 235 238 237 232 223 222 221 220 217 214 215 217 219 224 229 231 230 230
258 238 259 255 257 266 276 291 316 329 346 353 351 343 342 6 24 31 25 5 38 35 28 32 19 359 351 3 25 11 7 8 1 28 49 202 171 127 225 214 161 210 289 274 264 271 271 232 223 327 50 86 312 300 293 360 356 356 349 345 341 308 323 333 332 310 279 267 263 253 243 234 228 227 225 223 222 222 222 221 222 226 228 228 228
253 266 271 289 310 335 358 30 33 38 36 35 33 36 48 55 50 47 38 41 50 45 40 43 31 4 3 6 37 44 323 257 290 115 122 107 118 210 229 199 168 192 230 264 278 269 282 260 222 296 333 6 345 337 332 331 322 323 320 313 307 301 299 310 312 302 288 268 248 235 233 236 241 236 229 228 228 227 226 222 221 222 222 224 225
271 293 351 26 36 44 40 41 39 37 36 37 35 41 43 49 40 39 33 44 55 52 43 45 29 17 357 336 311 267 250 260 236 161 174 151 177 227 219 187 194 203 219 234 265 274 202 243 215 136 321 315 321 308 301 300 300 306 304 297 296 298 305 304 303 296 290 287 291 300 304 288 252 244 240 230 227 226 226 226 225 226 225 226 226
39 50 53 50 47 51 47 45 44 40 39 38 37 40 45 47 44 42 31 35 44 41 40 15 5 339 313 300 291 289 277 259 252 231 208 193 202 231 240 209 213 216 216 233 242 264 266 271 273 278 280 283 279 272 270 279 292 311 301 286 285 288 297 290 284 282 283 282 284 290 293 289 274 259 245 235 228 224 224 226 227 227 227 227 229
52 59 62 61 60 62 58 53 49 45 41 40 37 40 46 47 46 46 37 34 38 40 18 13 345 324 310 304 300 291 290 296 258 251 244 240 221 232 241 223 216 233 228 232 240 255 276 286 269 263 271 269 269 250 274 278 286 296 294 286 285 286 289 290 287 273 265 268 269 270 275 280 277 262 252 240 227 222 222 225 226 227 229 232 234
65 70 69 68 67 65 66 57 53 50 47 45 39 40 42 38 38 36 34 35 42 21 51 26 347 335 322 313 308 314 317 306 305 305 300 296 278 263 269 251 230 237 233 241 247 253 266 284 281 251 258 214 274 274 286 299 298 297 291 290 286 277 279 278 272 268 264 270 276 274 267 265 264 258 249 245 237 217 213 219 224 226 229 234 236
72 73 77 76 72 70 67 57 51 47 41 40 35 35 34 30 26 24 22 17 20 18 12 8 350 341 327 323 327 332 332 328 322 309 307 309 302 281 273 262 242 237 238 236 240 241 244 256 271 279 267 267 260 293 307 301 291 289 289 291 294 293 277 270 264 261 267 269 267 262 260 263 255 240 233 232 216 210 216 217 223 228 233 238 243
84 79 76 77 73 68 67 60 52 47 40 34 31 28 25 19 15 10 12 15 20 16 11 360 354 352 338 331 329 328 328 323 319 320 322 320 316 308 296 286 283 280 262 256 250 259 264 281 277 281 292 281 287 283 299 280 278 289 291 291 287 276 277 266 259 263 256 253 260 265 268 258 244 235 252 241 247 232 236 227 225 229 237 248 257
88 89 79 72 69 63 63 58 53 46 38 32 26 23 18 15 9 4 5 8 12 9 6 360 3 352 350 342 328 327 328 322 319 318 319 314 312 308 294 288 294 291 285 280 275 264 265 265 277 280 293 292 271 315 320 315 314 299 285 278 278 283 286 281 271 272 278 270 256 256 237 196 203 209 222 216 217 217 220 223 223 229 237 242 248
88 77 77 69 69 68 62 56 51 43 35 29 26 17 11 9 8 7 7 5 6 3 2 359 353 353 347 342 332 328 320 314 307 305 305 307 310 306 301 294 290 293 289 285 278 269 264 271 278 288 282 281 297 331 349 333 311 304 293 274 278 284 286 289 279 271 267 262 257 235 255 242 208 204 216 211 210 210 215 222 239 256 262 254 248
88 83 76 76 67 66 58 50 42 32 23 22 21 13 9 13 9 6 359 2 2 358 355 353 349 347 341 335 332 320 309 299 295 295 293 301 317 310 307 303 281 276 280 279 284 287 284 280 270 264 284 292 314 312 298 297 300 290 293 313 318 345 301 301 304 305 249 254 248 254 260 249 244 217 205 196 181 178 187 353 308 284 269 279 263
79 79 76 75 71 62 53 47 35 28 17 23 20 13 2 11 14 7 358 355 354 351 350 347 345 337 332 326 318 312 297 284 289 310 320 309 304 311 302 270 262 269 275 281 281 282 279 282 284 293 300 309 310 305 293 315 330 333 329 322 315 324 325 311 284 305 321 296 272 295 24 6 56 43 32 35 31 63 61 113 59 334 317 283 265
82 79 77 75 72 63 49 42 31 20 17 19 17 15 10 16 28 7 352 354 351 351 346 341 337 334 333 331 326 327 327 335 331 327 321 328 327 327 322 304 292 285 297 302 302 295 287 292 292 288 303 306 294 305 322 325 327 316 314 311 302 308 306 301 47 45 22 10 27 9 360 356 9 35 133 132 55 59 57 47 40 27 23 11 3
84 80 77 71 66 58 50 36 27 12 2 13 20 16 17 12 28 7 352 349 350 355 352 346 345 342 337 327 327 338 345 342 338 337 342 335 334 332 320 305 316 308 291 302 301 302 300 307 316 316 308 309 330 335 319 316 312 311 313 320 321 334 341 332 77 23 12 29 76 61 29 0 342 13 17 23 12 26 39 37 23 12 21 28 27
82 85 79 73 63 56 50 38 25 12 332 18 10 8 7 5 16 16 350 338 351 359 355 347 345 344 343 343 341 345 347 338 341 347 347 351 346 355 347 349 359 339 312 315 303 303 318 312 293 304 323 319 321 316 309 311 318 324 332 335 355 37 44 5 355 313 8 16 55 52 48 304 300 60 51 47 19 15 28 28 16 38 45 48 47
91 88 78 74 72 63 56 42 22 12 17 17 3 2 359 359 6 17 355 354 1 2 358 356 353 348 350 355 354 351 353 346 358 348 346 355 357 0 358 16 18 26 30 4 329 319 311 314 315 322 314 315 316 322 340 329 337 333 349 342 51 86 91 52 312 46 6 355 56 78 44 351 7 61 51 40 36 37 40 34 38 45 51 52 54
102 89 90 87 88 72 52 41 33 20 348 13 1 0 359 359 6 22 8 355 355 8 5 2 358 360 0 2 360 1 355 1 6 353 352 357 354 357 9 10 4 14 14 6 3 358 319 299 312 323 326 340 334 344 342 348 338 315 339 340 329 80 68 50 11 54 353 8 134 126 106 51 73 101 94 71 62 49 37 34 44 52 55 58 54
97 97 102 103 101 84 54 42 26 356 317 5 357 3 5 4 14 26 3 359 356 9 10 8 5 6 6 6 358 4 8 10 11 1 3 5 348 348 357 356 353 355 357 359 354 350 4 9 339 320 333 346 342 343 350 342 322 326 335 344 353 27 74 118 79 51 22 15 139 157 87 58 63 81 68 60 66 63 53 43 53 57 58 51 57
111 116 123 114 96 70 47 31 5 0 335 10 4 9 9 5 12 22 1 7 7 13 14 8 7 4 5 7 6 10 5 5 12 4 18 14 350 350 356 353 339 347 344 359 351 337 355 28 16 8 354 350 350 350 324 313 325 332 311 358 29 36 67 96 79 37 39 21 6 286 83 65 67 80 66 62 70 64 62 47 52 62 63 65 64
110 117 114 107 83 64 48 25 353 3 339 18 16 17 15 4 17 18 10 11 19 25 21 14 6 353 3 20 15 14 5 6 13 4 10 26 2 4 359 348 347 344 359 343 18 52 47 34 30 40 34 28 21 348 348 343 350 320 329 64 86 99 109 88 64 26 42 23 21 37 86 67 54 84 71 65 66 71 64 60 47 60 63 62 62
112 105 103 79 63 42 11 351 28 10 356 17 25 24 17 11 21 17 10 10 20 28 29 22 11 8 11 33 40 22 5 9 13 6 1 27 9 8 356 351 356 1 1 3 20 32 37 38 33 32 31 29 26 25 31 14 358 6 124 77 52 68 111 97 72 62 45 28 17 12 55 76 48 86 86 63 64 70 76 70 68 55 62 60 58
111 105 90 74 47 27 37 23 42 25 354 10 24 24 22 15 26 14 351 12 20 12 360 23 19 22 13 20 34 26 18 15 13 5 5 22 18 9 359 347 7 8 5 357 5 13 25 33 26 28 38 35 33 35 52 50 48 38 12 69 48 94 92 109 107 96 76 45 23 350 23 57 54 82 102 91 67 44 52 57 60 68 71 69 63
100 103 90 77 83 34 38 36 42 43 12 13 20 17 21 18 19 9 5 15 10 5 1 12 16 19 18 12 23 29 28 24 19 5 9 20 19 10 353 350 12 17 5 352 19 22 23 23 25 31 34 31 36 31 34 41 42 40 32 37 20 48 97 105 115 126 109 63 20 348 32 48 58 29 128 116 73 64 45 43 41 33 36 61 68